STARLINK-32467, 61713

Orbit data source: Space-Track

STARLINK-32467, 61713 is a payload satellite owned by SpaceX/Seattle (US) in LEO that was launched on Wed, 30 Oct 2024 UTC via an FALCON 9 launch vehicle from the Air Force Eastern Test Range (AFETR). Payload-class satellites include a variety of spacecraft equipped with specific instruments for various scientific and technological missions. These include communications satellites like Starlink; space stations such as the ISS; scientific satellites like the Hubble; Earth observation satellites from companies like Planet Labs, Umbra, and HawkEye 360; GPS; miniature CubeSats for education and research; and military/defense satellites.

Loading next visibility...
Identifier
61713, 2024-196G
Orbit
LEO
Last TLE update
13 hours ago
Origin
Manufacturer
SpaceX/Seattle
Mission
Operational Commercial Communications
Bus & Motor
STARLINK V2M, Unknown motor
Mass
730 kg wet, ~700 kg dry
Launch date (UTC)
2024-10-30 (8 months ago)
Launch vehicle
FALCON 9
Launch site
Air Force Eastern Test Range (AFETR)
Object type
Payload
Rocket body
Debris
Shape & HBR
Box + 2 Pan, 29 m
Radar Cross Section
36.964 m², Large (>1 m²)

Expand to show TLE details & history

TLE from 13 hours ago
0 STARLINK-32467
1 61713U 24196G   25186.22369172  .00001124  00000-0  50075-4 0  9993
2 61713  53.1602 171.1373 0000994  86.8915 273.2199 15.30187006 39263
Epoch: 2025-07-05T05:22Z
TLE epoch observation values (Epoch: 2025-07-05T05:22:06.964Z)
Latitude
-0.00007°
Longitude
167.14342°
Altitude
476.115 km
Speed
7.629 km/s
True Right ascension
11h 24m 32s
True Declination
0° 00' 00"
Sunlit
Object was in daylight at epoch
Visualization orbit readout
Latitude
46.26935°
Longitude
-144.18719°
Altitude
479.599 km
Speed
7.632 km/s
Apparent Right ascension
16h 24m 44s
Apparent Declination
5° 40' 22"
Sunlit
Object is in daylight
Visualization observer readout
Local Sidereal Time
06:06:47
Azimuth
33.315° NE
Elevation
-38.711°
Doppler factor
1
Orbital elements
Apogee altitude
476.192 km
Perigee altitude
474.829 km
Semi-major axis
6,853.647 km
Eccentricity
0.0001
Inclination
53.1602°
RAAN
171.1373°
Arg. of periapsis
86.8915°
True anomaly
Unknown
Mean anomaly
273.2199°
Eccentric anomaly
Unknown
Mean motion
3.82526 °/min
Orbital period
94.11 mins
BSTAR
0.000050075
Loading maneuver chart data...
Loading SW <> Apogee altitude chart data...
Loading historical data...
Loading historical data...
Loading historical data...
Loading historical data...
Loading historical data...
Loading historical data...
Loading historical data...

STARLINK-32467 Visibility forecast

Observer location: undefined°, undefined°

Span
Click to sort rows by Start time (UTC) header in descending order
Start Az.
Max El. time (UTC)
Max El. Az.
Max El.
End time (UTC)
End Az.
5 mins2025-07-06 01:57:18.169Z243.282° WSW2025-07-06 01:59:18.169Z338.988° N42.961°2025-07-06 02:02:18.169Z44.93° NE
4 mins2025-07-06 06:54:18.169Z349.809° N2025-07-06 06:56:18.169Z31.127° NE17.828°2025-07-06 06:58:18.169Z66.434° ENE
5 mins2025-07-06 08:32:18.169Z307.492° NW2025-07-06 08:34:18.169Z192.556° SSW44.801°2025-07-06 08:37:18.169Z133.639° SE
|